Portada
METAR-TAF:

METAR-TAF

Aeropuertos :

Peachtree City Airport (Falcon Field)

Atlanta, Georgia, Estados Unidos

latitud: 33-21-19N, longitud: 084-34-01W, altitud: 246 m

Observación

El informe se hizo hace 53 minutos, a las 21:53 UTC
Viento 4 kt del este-sureste
Temperatura 27°C
Humedad 32%
Presión 1016 hPa
Visibilidad: 16.1 km
Cielo despejado

METAR: KFFC 052153Z AUTO 11004KT 10SM CLR 27/09 A3000 RMK AO2 SLP155 T02720094

Hora: 18:46 (22:46 UTC)


TAF: falta

Observaciones y pronósticos meteorológicos de más de 4000 aeropuertos (mensajes METAR y TAF).

Los puntos amarillos y rojos representan las estaciones disponibles.

Ponga el ratón en el punto deseado para ver el nombre de la estación.

Haga clic para ver las observaciones y los pronósticos meteorológicos.

Para cambiar el mapa : haga clic en los botones verdes con una cruz de color negro para hacer un zoom, en el botón verde con un guión para alejar o en las flechas verdes para mapas adyacentes.


METAR-TAF: